Tracking 19846 objects as of 18-Sep-2019
HD Live streaming from Space Station
objects crossing your sky now

WESTAR 5

Track WESTAR 5 now!
WESTAR 5 is classified as:


NORAD ID: 13269
Int'l Code: 1982-058A
Perigee: 36,027.8 km
Apogee: 36,156.0 km
Inclination: 15.2 °
Period: 1,451.4 minutes
Semi major axis: 42462 km
RCS: 3.0486 m2 (large)
Launch date: June 9, 1982
Source: United States (US)
Launch site: AIR FORCE EASTERN TEST RANGE (AFETR)
aabbcc
Your satellite tracking list
Your tracking list is empty




NASA's NSSDC Master Catalog

Two Line Element Set (TLE):
1 13269U 82058A   19258.93313289 -.00000113  00000-0  00000+0 0  9992
2 13269  15.2104 356.9867 0015092 217.9923 127.5038  0.99217461 95065
Source of the keplerian elements: AFSPC